Regional Weather Roundup
Issued by NWS

Home | Current Version | Previous Version | Graphics & Text | Print | Product List | Glossary On
Versions: 1 2 3 4 5 6 7 8 9 10 11 12 13 14 15 16 17 18 19 20 21 22 23 24 25 26 27 28 29 30 31 32 33 34 35 36 37 38 39 40 41 42 43 44 45 46 47 48 49 50
000
ASUS43 KBIS 240101
RWRND

NORTH DAKOTA REGIONAL WEATHER ROUNDUP
NATIONAL WEATHER SERVICE BISMARCK ND
800 PM CDT SAT MAY 23 2015

NOTE: "FAIR" INDICATES FEW OR NO CLOUDS BELOW 12,000 FEET WITH NO
SIGNIFICANT WEATHER AND/OR OBSTRUCTIONS TO VISIBILITY.


NDZ001>003-009>011-017-240200-
NORTHWEST NORTH DAKOTA

CITY           SKY/WX    TMP DP  RH WIND       PRES   REMARKS
WILLISTON      CLOUDY    69  38  32 SE10      30.08S
MINOT          PTSUNNY   71  40  32 S8        30.06F
MINOT AFB      PTSUNNY   73  42  32 S10       30.05S
$$

NDZ018>021-031>035-040>046-240200-
SOUTHWEST NORTH DAKOTA

CITY           SKY/WX    TMP DP  RH WIND       PRES   REMARKS
BISMARCK       MOSUNNY   63  49  60 S8        30.10S
DICKINSON      CLOUDY    57  47  69 SE6       30.07F
GARRISON         N/A     65  46  50 S8        30.09S
HETTINGER ARPT CLOUDY    59  46  62 E13       30.07F
$$

NDZ004>008-012>016-024-026-027-054-240200-
NORTHEAST NORTH DAKOTA

CITY           SKY/WX    TMP DP  RH WIND       PRES   REMARKS
GRAND FORKS    MOCLDY    70  45  40 S10       30.08S
GRND FRKS AFB  PTCLDY    71  44  38 S8        30.08S
DEVILS LAKE    MOSUNNY   70  41  35 S9        30.07F
$$

NDZ022-023-025-028>030-036>039-047>053-240200-
SOUTHEAST NORTH DAKOTA

CITY           SKY/WX    TMP DP  RH WIND       PRES   REMARKS
FARGO          CLEAR     68  45  43 S12       30.10F
JAMESTOWN      MOSUNNY   64  48  56 S8        30.10R
$$




USA.gov is the U.S. government's official web portal to all federal, state and local government web resources and services.